| time (UTC) | temp F | wind direction | speed knots | gust knots | rain 1hr in | rain 24hr in | rain mn in | humidity % | barometer mb |
| 20260901030011 | 73 | 71 | 0.0 | 0.0 | 0.00 | 0.00 | 0.00 | 43 | 1008.0 |
| 20260901024511 | 77 | 70 | 0.0 | 0.0 | 0.00 | 0.00 | 0.00 | 38 | 1008.0 |
| 20260901023018 | 80 | 71 | 0.0 | 0.0 | 0.00 | 0.00 | 0.00 | 33 | 1007.9 |
| 20260901021509 | 83 | 71 | 0.0 | 0.9 | 0.00 | 0.00 | 0.00 | 30 | 1007.8 |
| 20260901020008 | 83 | 70 | 0.0 | 1.7 | 0.00 | 0.00 | 0.00 | 29 | 1008.0 |
| 20260901014506 | 84 | 108 | 0.0 | 1.7 | 0.00 | 0.00 | 0.00 | 27 | 1008.1 |
| 20260901013009 | 84 | 333 | 0.0 | 2.6 | 0.00 | 0.00 | 0.00 | 28 | 1008.3 |
| 20260901011502 | 86 | 46 | 0.0 | 1.7 | 0.00 | 0.00 | 0.00 | 26 | 1008.5 |
| 20260901010059 | 85 | 153 | 0.0 | 0.9 | 0.00 | 0.00 | 0.00 | 27 | 1008.5 |
| 20260901004601 | 84 | 203 | 0.0 | 1.7 | 0.00 | 0.00 | 0.00 | 28 | 1008.8 |
| 20260901003055 | 84 | 61 | 1.7 | 4.3 | 0.00 | 0.00 | 0.00 | 27 | 1008.9 |
| 20260901001553 | 83 | 251 | 0.0 | 3.5 | 0.00 | 0.00 | 0.00 | 28 | 1009.1 |
| 20260901000051 | 83 | 57 | 1.7 | 4.3 | 0.00 | 0.00 | 0.00 | 27 | 1009.3 |
| 20260831234555 | 83 | 106 | 0.0 | 2.6 | 0.00 | 0.00 | 0.00 | 27 | 1009.4 |
| 20260831233046 | 82 | 288 | 1.7 | 3.5 | 0.00 | 0.00 | 0.00 | 27 | 1009.7 |
| 20260831231544 | 82 | 195 | 1.7 | 4.3 | 0.00 | 0.00 | 0.00 | 28 | 1009.9 |
| 20260831230044 | 82 | 325 | 1.7 | 7.0 | 0.00 | 0.00 | 0.00 | 28 | 1010.1 |
| 20260831224540 | 82 | 69 | 1.7 | 4.3 | 0.00 | 0.00 | 0.00 | 28 | 1010.2 |
| 20260831223042 | 81 | 163 | 1.7 | 4.3 | 0.00 | 0.00 | 0.00 | 31 | 1010.4 |
| 20260831221534 | 82 | 225 | 1.7 | 3.5 | 0.00 | 0.00 | 0.00 | 30 | 1010.6 |
| 20260831220031 | 81 | 100 | 0.9 | 3.5 | 0.00 | 0.00 | 0.00 | 30 | 1010.9 |
| 20260831214528 | 80 | 273 | 2.6 | 4.3 | 0.00 | 0.00 | 0.00 | 31 | 1011.2 |
| 20260831213027 | 80 | 12 | 0.9 | 4.3 | 0.00 | 0.00 | 0.00 | 32 | 1011.4 |
| 20260831211523 | 79 | 162 | 0.0 | 5.2 | 0.00 | 0.00 | 0.00 | 32 | 1011.5 |
| 20260831210021 | 79 | 224 | 0.9 | 3.5 | 0.00 | 0.00 | 0.00 | 32 | 1011.9 |
| 20260831204518 | 78 | 60 | 0.9 | 3.5 | 0.00 | 0.00 | 0.00 | 33 | 1012.0 |
| 20260831203014 | 77 | 290 | 0.0 | 4.3 | 0.00 | 0.00 | 0.00 | 34 | 1012.1 |
| 20260831201515 | 78 | 23 | 0.0 | 5.2 | 0.00 | 0.00 | 0.00 | 34 | 1012.5 |
| 20260831200007 | 77 | 307 | 0.9 | 6.1 | 0.00 | 0.00 | 0.00 | 35 | 1012.8 |
| 20260831194505 | 77 | 128 | 0.0 | 1.7 | 0.00 | 0.00 | 0.00 | 36 | 1013.0 |
| 20260831193002 | 76 | 328 | 0.9 | 4.3 | 0.00 | 0.00 | 0.00 | 35 | 1013.1 |
| 20260831191603 | 75 | 76 | 0.0 | 2.6 | 0.00 | 0.00 | 0.00 | 36 | 1013.5 |
| 20260831190055 | 74 | 288 | 0.9 | 2.6 | 0.00 | 0.00 | 0.00 | 39 | 1013.7 |
| 20260831184552 | 73 | 55 | 0.9 | 3.5 | 0.00 | 0.00 | 0.00 | 39 | 1014.0 |
| 20260831183049 | 72 | 159 | 0.0 | 2.6 | 0.00 | 0.00 | 0.00 | 40 | 1014.1 |
| 20260831181551 | 72 | 152 | 0.9 | 4.3 | 0.00 | 0.00 | 0.00 | 43 | 1014.4 |
| 20260831180042 | 71 | 87 | 1.7 | 3.5 | 0.00 | 0.00 | 0.00 | 44 | 1014.5 |
| 20260831174639 | 69 | 94 | 0.0 | 4.3 | 0.00 | 0.00 | 0.00 | 47 | 1014.6 |
| 20260831173035 | 69 | 108 | 1.7 | 4.3 | 0.00 | 0.00 | 0.00 | 48 | 1014.8 |
| 20260831171531 | 68 | 200 | 0.9 | 3.5 | 0.00 | 0.00 | 0.00 | 52 | 1015.0 |
| 20260831170036 | 66 | 153 | 0.0 | 3.5 | 0.00 | 0.00 | 0.00 | 55 | 1015.1 |
| 20260831164524 | 65 | 105 | 0.9 | 3.5 | 0.00 | 0.00 | 0.00 | 56 | 1015.2 |
| 20260831163021 | 64 | 115 | 0.0 | 1.7 | 0.00 | 0.00 | 0.00 | 59 | 1015.4 |
| 20260831161518 | 62 | 113 | 2.6 | 4.3 | 0.00 | 0.00 | 0.00 | 61 | 1015.5 |
| 20260831154511 | 60 | 110 | 1.7 | 5.2 | 0.00 | 0.00 | 0.00 | 64 | 1015.8 |
| 20260831153010 | 59 | 98 | 1.7 | 4.3 | 0.00 | 0.00 | 0.00 | 66 | 1015.8 |
| 20260831151505 | 58 | 129 | 0.0 | 3.5 | 0.00 | 0.00 | 0.00 | 68 | 1015.8 |
| 20260831150001 | 56 | 94 | 0.0 | 1.7 | 0.00 | 0.00 | 0.00 | 70 | 1015.8 |
| 20260831144600 | 55 | 89 | 0.0 | 1.7 | 0.00 | 0.00 | 0.00 | 72 | 1015.7 |
| 20260831143101 | 54 | 112 | 0.0 | 1.7 | 0.00 | 0.00 | 0.00 | 74 | 1015.7 |
| 20260831141609 | 51 | 91 | 0.0 | 0.9 | 0.00 | 0.00 | 0.00 | 77 | 1015.7 |
| 20260831140058 | 49 | 92 | 0.0 | 1.7 | 0.00 | 0.00 | 0.00 | 80 | 1015.7 |
| 20260831134557 | 49 | 109 | 0.0 | 0.0 | 0.00 | 0.00 | 0.00 | 79 | 1015.4 |
| 20260831133056 | 50 | 108 | 0.0 | 0.9 | 0.00 | 0.00 | 0.00 | 78 | 1015.3 |
| 20260831131559 | 49 | 109 | 0.0 | 0.9 | 0.00 | 0.00 | 0.00 | 78 | 1015.3 |
| 20260831130054 | 49 | 109 | 0.0 | 1.7 | 0.00 | 0.00 | 0.00 | 78 | 1015.2 |
| 20260831124553 | 50 | 88 | 0.0 | 1.7 | 0.00 | 0.00 | 0.00 | 78 | 1015.2 |
| 20260831123049 | 50 | 113 | 0.0 | 0.9 | 0.00 | 0.00 | 0.00 | 77 | 1015.1 |
| 20260831121549 | 52 | 113 | 0.0 | 0.9 | 0.00 | 0.00 | 0.00 | 77 | 1015.1 |
| 20260831114547 | 51 | 110 | 0.0 | 0.9 | 0.00 | 0.00 | 0.00 | 77 | 1015.3 |
| 20260831113049 | 51 | 103 | 0.0 | 1.7 | 0.00 | 0.00 | 0.00 | 75 | 1015.3 |
| 20260831111540 | 53 | 118 | 0.0 | 0.0 | 0.00 | 0.00 | 0.00 | 74 | 1015.3 |
| 20260831110039 | 53 | 119 | 0.0 | 0.9 | 0.00 | 0.00 | 0.00 | 73 | 1015.2 |
| 20260831104539 | 54 | 113 | 1.7 | 3.5 | 0.00 | 0.00 | 0.00 | 72 | 1015.0 |
| 20260831103039 | 54 | 114 | 0.9 | 1.7 | 0.00 | 0.00 | 0.00 | 73 | 1015.1 |
| 20260831101537 | 53 | 115 | 0.9 | 3.5 | 0.00 | 0.00 | 0.00 | 72 | 1015.1 |
| 20260831100037 | 53 | 111 | 0.0 | 2.6 | 0.00 | 0.00 | 0.00 | 72 | 1015.1 |
| 20260831094533 | 54 | 112 | 0.9 | 1.7 | 0.00 | 0.00 | 0.00 | 72 | 1015.2 |
| 20260831093032 | 54 | 110 | 0.0 | 0.9 | 0.00 | 0.00 | 0.00 | 72 | 1015.3 |
| 20260831091533 | 54 | 114 | 0.0 | 2.6 | 0.00 | 0.00 | 0.00 | 72 | 1015.4 |
| 20260831090028 | 55 | 102 | 0.0 | 2.6 | 0.00 | 0.00 | 0.00 | 71 | 1015.5 |
| 20260831084528 | 56 | 94 | 0.0 | 0.9 | 0.00 | 0.00 | 0.00 | 72 | 1015.4 |
| 20260831083028 | 55 | 94 | 0.0 | 1.7 | 0.00 | 0.00 | 0.00 | 73 | 1015.4 |
| 20260831081525 | 55 | 94 | 0.0 | 1.7 | 0.00 | 0.00 | 0.00 | 73 | 1015.5 |
| 20260831080028 | 55 | 59 | 0.0 | 0.9 | 0.00 | 0.00 | 0.00 | 74 | 1015.5 |
| 20260831074525 | 55 | 59 | 0.0 | 0.9 | 0.00 | 0.00 | 0.00 | 73 | 1015.5 |
| 20260831073021 | 55 | 60 | 0.0 | 0.0 | 0.00 | 0.00 | 0.00 | 73 | 1015.5 |
| 20260831071517 | 56 | 60 | 0.0 | 0.0 | 0.00 | 0.00 | 0.00 | 72 | 1015.4 |
| 20260831070017 | 57 | 59 | 0.0 | 1.7 | 0.00 | 0.00 | 0.00 | 70 | 1015.5 |
| 20260831064513 | 57 | 61 | 0.0 | 0.0 | 0.00 | 0.00 | 0.00 | 69 | 1015.5 |
| 20260831063016 | 57 | 58 | 0.0 | 0.9 | 0.00 | 0.00 | 0.00 | 66 | 1015.6 |
| 20260831061513 | 59 | 90 | 0.0 | 0.9 | 0.00 | 0.00 | 0.00 | 66 | 1015.7 |
| 20260831060012 | 59 | 92 | 0.0 | 0.0 | 0.00 | 0.00 | 0.00 | 65 | 1015.6 |
| 20260831054512 | 59 | 92 | 0.0 | 0.9 | 0.00 | 0.00 | 0.00 | 65 | 1015.6 |
| 20260831053012 | 60 | 90 | 0.0 | 0.0 | 0.00 | 0.00 | 0.00 | 64 | 1015.6 |
| 20260831051518 | 60 | 79 | 0.0 | 0.9 | 0.00 | 0.00 | 0.00 | 63 | 1015.6 |
| 20260831050010 | 62 | 79 | 0.0 | 0.9 | 0.00 | 0.00 | 0.00 | 59 | 1015.5 |
| 20260831044510 | 62 | 132 | 0.0 | 0.9 | 0.00 | 0.00 | 0.00 | 58 | 1015.5 |
| 20260831043010 | 63 | 134 | 0.0 | 0.9 | 0.00 | 0.00 | 0.00 | 55 | 1015.5 |
| 20260831041509 | 64 | 255 | 0.0 | 0.9 | 0.00 | 0.00 | 0.00 | 52 | 1015.4 |
| 20260831040008 | 65 | 255 | 0.0 | 0.0 | 0.00 | 0.00 | 0.00 | 50 | 1015.3 |
| 20260831034508 | 65 | 169 | 0.0 | 1.7 | 0.00 | 0.00 | 0.00 | 53 | 1015.1 |
| 20260831033015 | 66 | 79 | 0.0 | 0.0 | 0.00 | 0.00 | 0.00 | 47 | 1014.8 |
| 20260831031512 | 68 | 79 | 0.0 | 0.0 | 0.00 | 0.00 | 0.00 | 44 | 1014.7 |